Date,TemperatureHighF,TemperatureAvgF,TemperatureLowF,DewpointHighF,DewpointAvgF,DewpointLowF,HumidityHigh,HumidityAvg,HumidityLow,PressureMaxIn,PressureMinIn,WindSpeedMaxMPH,WindSpeedAvgMPH,GustSpeedMaxMPH,PrecipitationSumIn
2013-1-1,50.9,48.4,46.6,45.0,35.4,23.9,85,63,39,30.10,29.92,12,2,13,0.16
2013-1-2,49.6,44.7,40.1,45.6,39.9,35.0,88,83,74,30.19,29.92,4,0,6,0.31
2013-1-3,45.0,40.1,30.7,36.7,33.4,24.6,87,77,62,30.24,30.16,0,0,8,0.04
2013-1-4,49.1,37.0,25.3,29.5,23.6,17.1,85,61,39,30.30,30.19,9,1,15,0.00
2013-1-5,48.9,36.3,26.1,32.0,21.8,16.0,85,57,39,30.39,30.27,5,0,9,0.39
2013-1-6,50.8,39.4,32.1,38.4,34.2,30.4,95,82,56,30.26,30.07,2,0,4,0.01
2013-1-7,53.8,36.8,26.2,36.5,29.6,24.7,95,79,42,30.45,30.18,3,0,7,0.00
2013-1-8,55.3,39.6,27.0,40.6,33.7,25.5,95,82,47,30.48,30.38,2,0,3,0.00
2013-1-9,68.9,49.9,32.7,50.5,42.5,31.6,96,79,47,30.45,30.35,6,0,9,0.00
2013-1-10,65.6,51.7,41.9,47.0,42.9,36.7,96,74,46,30.54,30.41,6,0,9,0.00
2013-1-11,52.2,48.3,42.8,51.4,43.3,30.9,97,84,53,30.45,30.15,2,0,4,0.28
2013-1-12,69.9,57.3,51.1,62.4,55.4,50.6,98,94,75,30.17,30.10,2,0,4,0.00
2013-1-13,75.8,63.0,54.2,62.4,58.0,53.4,98,85,59,30.15,30.04,4,0,7,0.00
2013-1-14,69.4,63.1,54.6,63.4,59.6,53.4,98,89,77,30.16,30.07,5,0,7,0.02
2013-1-15,61.5,46.4,44.4,60.9,45.1,43.2,98,95,92,30.25,30.06,6,0,9,0.01
2013-1-16,50.0,46.7,44.5,49.5,46.0,43.5,98,97,96,30.08,29.97,3,0,3,0.11
2013-1-17,51.0,46.7,33.0,50.5,45.9,32.2,98,97,94,30.13,29.91,11,1,20,1.35
2013-1-18,48.1,36.3,27.4,35.1,30.2,22.5,98,82,38,30.55,30.15,3,0,9,0.30
2013-1-19,53.9,35.1,23.3,34.5,27.6,22.1,96,79,31,30.52,30.17,5,0,8,0.00
2013-1-20,64.8,44.7,31.6,38.8,32.7,30.3,97,69,28,30.16,29.98,10,1,15,0.00
2013-1-21,59.5,43.2,27.1,35.5,27.7,16.0,96,62,25,30.09,29.86,9,1,12,0.00
2013-1-22,44.1,33.7,21.0,25.3,8.5,-2.4,74,37,18,30.30,29.95,5,0,14,0.00
2013-1-23,41.1,28.0,15.7,22.1,12.1,2.8,86,56,26,30.40,30.08,7,1,12,0.00
2013-1-24,37.2,30.1,19.9,26.2,15.2,4.5,85,55,26,30.54,29.97,5,0,11,0.00
2013-1-25,28.2,23.5,17.8,26.2,16.0,5.8,93,74,42,30.55,30.13,3,0,4,0.01
2013-1-26,36.1,30.3,24.6,32.4,28.2,23.4,96,92,80,30.42,30.11,4,0,4,0.06
2013-1-27,40.6,30.4,22.3,29.7,25.7,20.8,96,84,59,30.62,30.41,4,0,5,0.03
2013-1-28,53.7,41.6,28.3,49.0,36.1,26.5,95,82,62,30.52,30.23,9,1,14,0.01
2013-1-29,74.9,59.2,46.0,57.0,51.8,44.0,96,78,50,30.24,30.07,10,2,11,0.00
2013-1-30,72.8,67.8,57.8,64.4,62.0,55.1,93,82,71,30.07,29.37,16,4,25,0.01
2013-1-31,67.8,47.8,30.9,63.5,31.3,18.1,90,56,28,30.02,29.42,16,4,31,0.34
2013-2-1,42.8,35.7,23.8,28.5,15.5,2.6,87,47,22,30.40,29.89,14,2,21,0.00
2013-2-2,45.0,32.1,16.6,35.1,14.4,7.3,85,52,25,30.42,30.04,8,1,14,0.00
2013-2-3,50.1,41.6,29.6,36.4,29.9,23.6,92,66,38,30.03,29.85,9,1,13,0.00
2013-2-4,49.0,38.2,24.6,26.4,23.0,18.4,90,58,31,30.15,29.99,5,0,9,0.00
2013-2-5,62.4,46.0,35.3,36.6,31.9,26.3,92,61,32,30.02,29.87,6,1,10,0.00
2013-2-6,63.7,44.4,28.9,38.1,29.9,22.0,96,65,21,30.30,29.97,6,0,10,0.00
2013-2-7,49.3,42.7,36.1,42.6,37.4,33.4,95,82,67,30.34,30.00,8,1,8,0.21
2013-2-8,56.4,46.3,40.3,45.6,40.1,28.8,96,81,52,30.03,29.80,5,1,17,0.79
2013-2-9,54.4,39.5,27.1,31.0,24.2,15.7,94,61,23,30.36,30.03,8,0,11,0.00
2013-2-10,54.5,38.1,24.4,40.5,24.9,19.2,93,65,26,30.50,30.23,5,0,9,0.01
2013-2-11,64.1,56.3,43.5,60.2,53.2,39.8,97,90,81,30.23,29.91,12,2,15,0.03
2013-2-12,62.4,54.1,47.1,55.2,35.8,24.2,87,54,24,30.08,29.90,6,1,9,0.00
2013-2-13,48.3,46.5,43.8,47.0,44.1,37.7,96,92,73,29.95,29.62,6,0,11,0.22
2013-2-14,52.4,40.9,30.1,38.0,33.4,29.4,97,78,47,30.08,29.83,6,0,9,0.01
2013-2-15,63.2,43.4,27.7,40.1,32.5,26.6,96,72,28,30.10,29.93,6,0,9,0.00
2013-2-16,46.4,37.2,31.1,36.8,33.1,29.0,95,86,63,29.98,29.83,3,0,7,0.27
2013-2-17,38.8,30.6,21.5,29.3,16.5,6.8,93,59,27,30.29,29.91,10,1,21,0.00
2013-2-18,52.7,32.7,16.0,27.2,18.3,13.6,92,62,22,30.43,30.28,6,0,11,0.00
2013-2-19,54.7,43.0,29.1,50.9,38.4,24.9,95,84,56,30.27,29.85,14,1,18,0.10
2013-2-20,54.6,40.6,28.8,35.8,22.2,10.9,97,54,18,30.15,29.95,12,1,16,0.00
2013-2-21,55.9,40.5,23.3,30.5,21.7,16.5,90,52,22,30.28,30.12,7,0,9,0.00
2013-2-22,41.9,36.2,32.0,35.8,31.6,20.7,96,85,43,30.37,30.15,5,0,7,0.25
2013-2-23,43.8,40.2,36.4,43.0,39.3,35.4,97,96,96,30.14,29.81,2,0,4,0.77
2013-2-24,64.1,49.2,34.9,47.4,40.7,30.9,98,78,29,30.04,29.79,7,0,10,0.16
2013-2-25,42.1,37.1,30.4,33.2,25.3,20.5,94,63,45,30.23,30.04,5,0,8,0.00
2013-2-26,57.8,46.3,36.0,57.0,43.0,26.1,98,88,67,30.15,29.56,8,1,16,0.63
2013-2-27,61.0,49.6,38.0,46.2,40.3,35.1,98,74,39,29.78,29.61,11,2,15,0.00
2013-2-28,49.3,40.5,30.0,40.7,32.2,26.6,98,75,44,29.85,29.69,8,0,12,0.00
2013-3-1,50.5,39.2,25.9,34.4,28.7,24.7,95,69,40,29.91,29.83,6,0,10,0.00
2013-3-2,50.4,39.5,28.9,32.3,26.9,19.9,92,63,37,29.92,29.81,4,0,9,0.00
2013-3-3,48.5,37.0,27.8,24.0,20.2,15.7,81,52,33,29.98,29.83,9,1,11,0.00
2013-3-4,51.7,36.0,26.8,26.3,17.4,12.3,83,50,22,30.11,29.98,9,1,13,0.00
2013-3-5,52.2,41.1,28.8,44.2,34.9,22.8,96,81,36,30.09,29.58,6,0,12,0.26
2013-3-6,45.5,41.5,36.9,42.8,34.2,27.8,97,76,56,30.01,29.49,13,2,23,0.00
2013-3-7,50.6,41.8,29.8,32.4,29.6,27.4,93,63,44,30.23,30.01,10,0,13,0.00
2013-3-8,57.2,42.5,26.9,34.1,26.7,22.4,94,59,29,30.28,30.14,10,1,15,0.00
2013-3-9,64.6,45.2,28.8,36.9,29.5,25.2,93,61,24,30.33,30.23,4,0,7,0.00
2013-3-10,68.0,48.0,28.9,38.2,28.1,16.7,95,57,14,30.33,30.21,6,0,10,0.00
2013-3-11,70.2,55.3,35.0,52.4,44.4,30.9,91,69,46,30.25,29.95,9,2,15,0.00
2013-3-12,72.1,62.5,51.0,62.1,54.8,35.0,94,77,46,29.95,29.74,13,2,16,0.32
2013-3-13,58.5,46.7,32.5,37.9,28.3,18.3,93,53,25,30.12,29.93,15,1,20,0.00
2013-3-14,55.2,40.2,28.3,29.2,20.2,14.6,81,48,22,30.24,30.09,11,1,13,0.00
2013-3-15,63.0,44.6,24.8,37.6,27.6,18.9,91,57,28,30.19,29.90,10,2,16,0.00
2013-3-16,79.7,61.7,41.8,52.2,43.4,33.9,88,55,30,29.90,29.64,13,2,23,0.00
2013-3-17,57.8,50.7,40.3,53.0,45.0,37.6,96,81,65,30.19,29.82,6,1,13,0.00
2013-3-18,43.4,40.6,38.0,42.0,39.2,36.4,97,95,93,30.20,29.88,3,0,8,0.27
2013-3-19,69.6,52.1,40.7,47.8,34.5,12.1,97,63,17,30.01,29.82,8,1,14,0.01
2013-3-20,57.2,45.0,33.4,30.5,19.6,8.1,85,42,17,30.11,29.79,12,1,12,0.00
2013-3-21,45.9,39.2,32.4,34.0,20.2,9.2,84,49,27,29.97,29.73,10,1,14,0.00
2013-3-22,53.7,37.1,21.5,27.9,16.3,10.2,82,48,19,30.09,29.96,8,1,15,0.00
2013-3-23,57.6,42.9,30.7,36.1,28.1,18.3,89,61,27,30.06,29.91,2,0,6,0.00
2013-3-24,41.2,37.6,31.6,38.1,34.8,28.9,95,89,72,29.94,29.57,6,1,12,0.58
2013-3-25,49.4,40.8,35.4,38.3,31.0,22.8,96,72,38,29.81,29.55,16,2,21,0.01
2013-3-26,50.7,42.9,30.6,29.6,27.0,23.3,88,54,40,30.10,29.80,5,1,12,0.00
2013-3-27,54.4,42.0,27.6,29.8,25.0,20.0,93,55,29,30.22,30.10,11,1,17,0.00
2013-3-28,58.5,42.9,26.7,30.2,25.0,21.5,93,56,24,30.29,30.14,9,1,17,0.00
2013-3-29,62.1,45.3,27.4,34.6,27.4,23.0,92,56,24,30.33,30.18,9,1,14,0.00
2013-3-30,67.7,49.5,34.3,44.2,34.0,25.0,91,62,24,30.25,30.08,6,0,8,0.00
2013-3-31,68.6,56.6,47.8,56.2,50.2,42.6,95,80,61,30.10,29.80,10,1,17,0.41
2013-4-1,74.6,61.7,53.3,55.2,46.3,35.0,98,63,27,29.96,29.79,10,1,17,0.01
2013-4-2,62.4,49.2,34.0,36.2,28.8,20.9,89,50,21,30.16,29.97,10,1,12,0.00
2013-4-3,61.7,48.9,38.5,35.8,24.8,16.0,85,43,19,30.30,30.13,7,0,9,0.00
2013-4-4,49.3,42.9,39.6,40.6,32.6,23.4,95,69,43,30.37,29.92,7,1,11,0.63
2013-4-5,65.7,48.5,39.8,49.6,42.9,38.2,96,83,46,30.01,29.86,6,0,9,0.05
2013-4-6,65.7,52.1,37.1,41.7,33.1,23.5,97,54,24,30.29,30.01,7,1,9,0.00
2013-4-7,73.9,54.7,33.0,48.8,38.5,31.2,94,59,31,30.29,30.11,9,1,15,0.00
2013-4-8,79.8,65.1,48.2,57.2,51.1,46.6,96,65,37,30.17,30.04,13,2,15,0.00
2013-4-9,86.6,71.3,53.2,59.8,55.8,51.8,95,62,33,30.17,30.04,11,1,11,0.00
2013-4-10,89.4,75.3,60.9,61.9,58.5,55.4,89,59,33,30.08,29.92,12,2,16,0.00
2013-4-11,83.3,75.8,64.4,66.5,61.0,56.9,88,62,42,29.99,29.79,10,3,15,0.00
2013-4-12,82.8,73.6,65.7,68.8,63.5,45.4,93,73,44,29.81,29.59,10,3,17,0.51
2013-4-13,76.8,65.1,51.8,49.2,41.5,36.4,83,45,24,29.99,29.74,10,1,16,0.00
2013-4-14,82.3,64.5,44.8,52.5,44.6,34.2,97,57,19,30.10,30.00,5,0,9,0.00
2013-4-15,73.8,66.0,60.5,59.4,55.7,50.7,86,70,56,30.21,30.02,7,1,10,0.00
2013-4-16,78.2,64.4,54.9,61.8,57.8,53.3,97,81,43,30.30,30.19,3,0,5,0.00
2013-4-17,83.3,68.9,54.3,64.9,60.0,53.5,98,76,49,30.23,30.09,6,1,9,0.00
2013-4-18,81.7,70.2,58.8,63.7,59.9,56.2,96,72,44,30.19,30.03,8,1,14,0.00
2013-4-19,84.0,72.8,66.0,67.9,65.3,61.1,95,79,55,30.04,29.71,13,3,31,0.24
2013-4-20,66.7,56.7,44.1,64.8,41.8,30.6,95,62,30,30.27,29.81,9,1,14,0.00
2013-4-21,61.2,51.0,38.7,42.4,39.4,36.6,97,67,42,30.49,30.27,7,1,10,0.00
2013-4-22,61.5,49.2,36.8,46.6,39.6,33.7,90,71,47,30.49,30.27,4,1,10,0.00
2013-4-23,69.5,54.8,48.5,52.5,46.7,43.8,95,76,48,30.27,30.12,4,0,7,0.00
2013-4-24,79.0,62.6,43.9,56.5,51.3,43.1,98,71,41,30.16,29.96,9,2,15,0.00
2013-4-25,74.9,62.2,49.9,57.4,48.1,39.0,93,62,32,30.27,30.00,6,0,9,0.00
2013-4-26,74.8,58.4,46.4,51.3,43.1,31.3,97,65,21,30.42,30.27,8,0,8,0.00
2013-4-27,75.2,62.2,49.3,53.0,45.9,40.4,89,59,29,30.38,30.25,4,0,8,0.00
2013-4-28,63.4,58.8,54.6,55.8,49.8,40.7,96,73,53,30.27,30.10,3,0,6,0.47
2013-4-29,73.8,62.4,54.7,64.8,59.8,53.6,98,92,69,30.11,29.96,4,0,5,1.24
2013-4-30,67.2,61.7,56.5,61.9,59.0,55.1,98,91,75,30.16,29.99,2,0,5,0.01
2013-5-1,62.1,59.3,57.4,58.9,56.9,56.0,96,92,87,30.32,30.15,4,0,7,0.00
2013-5-2,62.8,59.2,54.1,57.8,55.8,51.3,94,89,82,30.33,30.25,3,0,6,0.00
2013-5-3,71.0,58.1,48.7,56.0,49.6,43.8,96,76,45,30.27,30.17,4,0,10,0.00
2013-5-4,65.0,56.2,49.6,54.0,49.4,45.0,90,78,64,30.22,30.08,5,1,9,0.00
2013-5-5,60.5,55.5,49.7,56.7,51.4,46.5,91,86,81,30.10,29.99,4,1,8,0.00
2013-5-6,68.4,61.3,56.3,65.6,59.4,54.9,97,94,87,30.01,29.82,4,1,7,0.78
2013-5-7,73.5,61.5,51.8,60.5,53.6,46.6,98,78,41,29.94,29.85,7,1,9,0.00
2013-5-8,73.4,60.6,50.6,61.7,55.1,49.5,98,84,55,30.01,29.92,9,0,12,0.12
2013-5-9,84.5,66.6,55.4,64.3,58.0,54.4,98,78,39,30.05,29.97,5,0,9,0.01
2013-5-10,86.6,72.4,54.5,65.9,59.2,53.7,98,68,38,30.06,29.93,7,1,10,0.00
2013-5-11,84.6,73.7,67.2,68.6,63.1,58.7,97,71,45,29.95,29.77,7,1,14,0.14
2013-5-12,76.2,66.4,52.5,65.5,52.6,37.9,96,65,29,30.02,29.77,4,0,11,0.00
2013-5-13,68.3,56.8,44.0,46.1,39.8,31.4,92,58,26,30.18,30.02,6,0,10,0.00
2013-5-14,72.1,55.3,37.7,51.0,40.3,32.1,97,64,25,30.26,30.08,6,0,8,0.00
2013-5-15,89.3,70.6,51.4,63.7,54.7,44.9,88,60,35,30.09,29.88,10,2,12,0.00
2013-5-16,85.9,74.9,60.0,64.9,60.2,55.3,96,64,38,29.96,29.88,6,1,12,0.00
2013-5-17,90.9,73.8,59.1,68.9,61.8,57.9,97,71,35,30.07,29.96,4,0,7,0.00
2013-5-18,78.7,70.9,63.4,70.6,66.0,61.8,96,85,69,30.15,30.06,3,0,5,0.08
2013-5-19,79.8,69.7,65.7,71.3,66.9,64.5,98,91,65,30.15,30.06,10,1,15,0.98
2013-5-20,75.3,70.3,67.2,71.5,68.7,66.3,97,95,84,30.11,30.02,7,1,14,1.50
2013-5-21,85.4,73.9,69.0,73.8,69.4,67.5,97,87,63,30.04,29.94,5,1,11,0.00
2013-5-22,85.4,75.5,69.6,70.6,68.1,66.0,94,79,53,30.02,29.90,6,1,12,0.00
2013-5-23,83.3,72.3,69.0,70.5,68.0,65.0,96,87,57,29.95,29.81,4,1,7,0.26
2013-5-24,72.4,65.2,51.1,67.8,54.7,37.8,97,72,35,30.17,29.79,8,0,18,0.00
2013-5-25,77.8,57.3,40.4,52.5,42.6,35.6,97,65,25,30.27,30.12,7,0,11,0.00
2013-5-26,77.8,59.3,43.5,56.0,46.9,40.5,98,70,29,30.28,30.17,4,0,7,0.00
2013-5-27,81.9,64.4,47.3,59.0,51.3,46.5,98,68,32,30.28,30.15,7,1,9,0.00
2013-5-28,85.5,72.1,56.6,67.4,61.3,54.1,96,71,51,30.25,30.13,9,1,12,0.00
2013-5-29,86.3,74.9,60.7,66.8,63.4,59.4,97,70,47,30.23,30.15,8,1,13,0.00
2013-5-30,89.1,75.4,61.4,68.7,64.1,58.7,97,71,37,30.26,30.16,6,1,9,0.00
2013-5-31,88.7,77.3,64.3,70.3,66.6,63.1,98,72,44,30.21,30.08,7,1,11,0.00
2013-6-1,89.6,78.8,68.1,69.4,67.0,63.7,95,70,44,30.14,30.01,8,1,11,0.00
2013-6-2,88.4,78.0,68.9,70.5,66.7,63.5,92,70,44,30.05,29.89,9,2,13,0.00
2013-6-3,84.5,75.0,67.2,74.6,70.6,65.8,96,87,66,29.95,29.82,5,1,9,0.09
2013-6-4,81.7,71.8,63.7,67.0,63.9,60.2,98,78,51,30.09,29.92,4,0,5,0.00
2013-6-5,84.0,71.2,60.4,65.1,60.5,55.6,97,72,39,30.14,30.01,6,0,8,0.00
2013-6-6,75.1,70.6,65.3,72.9,66.7,58.0,97,88,68,30.05,29.82,5,0,10,0.99
2013-6-7,78.7,71.9,68.9,76.2,70.7,68.3,98,96,88,29.85,29.43,5,0,11,2.24
2013-6-8,85.8,74.2,68.4,72.3,69.5,65.8,98,87,59,30.08,29.81,7,1,11,0.04
2013-6-9,88.0,76.3,65.5,75.3,69.9,64.9,99,83,57,30.15,30.04,12,1,12,0.20
2013-6-10,82.9,75.4,71.8,77.3,72.5,70.0,96,91,75,30.10,29.89,8,2,12,0.78
2013-6-11,87.0,76.4,67.5,70.6,68.2,64.5,95,78,49,29.94,29.87,7,1,12,0.00
2013-6-12,90.4,77.0,62.7,76.8,69.1,62.0,98,79,54,29.96,29.85,7,1,11,0.00
2013-6-13,95.9,84.1,68.7,77.4,72.0,62.1,97,71,39,29.85,29.57,13,2,22,0.13
2013-6-14,80.7,70.8,60.2,67.4,60.2,55.9,96,72,44,30.00,29.70,4,0,8,0.00
2013-6-15,86.5,71.4,55.9,66.4,60.5,55.1,98,73,41,30.11,30.00,6,1,9,0.00
2013-6-16,88.0,76.2,61.3,69.7,63.6,55.2,91,66,51,30.12,29.99,8,2,15,0.00
2013-6-17,88.0,78.4,72.2,73.1,68.9,65.0,85,73,57,30.03,29.91,6,1,8,0.00
2013-6-18,84.5,75.8,70.7,74.0,71.0,68.5,97,86,67,29.95,29.72,6,1,15,0.25
2013-6-19,81.0,72.5,65.5,69.5,67.1,64.6,98,84,64,30.11,29.85,2,0,8,0.00
2013-6-20,83.8,71.6,63.0,65.6,62.7,57.0,97,76,49,30.24,30.11,3,0,5,0.00
2013-6-21,85.0,70.5,54.4,68.2,60.2,53.1,97,73,42,30.25,30.18,2,0,4,0.00
2013-6-22,81.0,73.1,69.1,72.6,69.8,67.5,97,90,71,30.21,30.10,3,0,8,0.13
2013-6-23,85.9,76.2,67.8,76.0,71.6,67.1,99,86,65,30.20,30.11,6,0,7,0.01
2013-6-24,86.2,78.4,72.7,77.3,73.1,70.6,95,84,68,30.19,30.07,7,1,12,0.06
2013-6-25,87.9,76.6,70.5,77.3,71.9,69.1,96,86,65,30.12,29.99,12,1,15,0.18
2013-6-26,91.9,77.6,69.2,75.6,71.1,67.0,96,82,50,30.02,29.87,7,1,10,0.43
2013-6-27,90.2,77.7,68.7,76.2,71.9,67.2,97,84,60,29.91,29.70,7,2,12,0.00
2013-6-28,91.9,79.4,71.6,75.0,72.2,68.7,96,81,52,29.74,29.56,7,2,12,1.20
2013-6-29,87.0,76.9,69.4,76.3,71.8,68.5,98,85,63,29.72,29.59,5,1,11,0.81
2013-6-30,86.9,77.2,70.7,76.8,73.1,69.5,96,88,68,29.86,29.71,9,1,11,0.45
2013-7-1,83.3,75.7,70.6,75.8,72.7,69.4,98,91,75,29.99,29.83,8,1,13,1.02
2013-7-2,79.5,74.4,71.6,74.4,72.5,70.3,98,94,84,30.18,29.99,5,1,12,0.76
2013-7-3,85.7,77.5,73.2,77.4,74.6,72.3,98,91,70,30.24,30.15,5,1,10,0.58
2013-7-4,91.1,80.0,72.9,76.7,73.5,70.2,98,82,53,30.27,30.18,8,1,10,0.00
2013-7-5,90.9,80.3,71.1,77.3,73.4,70.2,98,81,55,30.27,30.15,5,1,8,0.00
2013-7-6,88.6,79.6,73.4,76.8,73.3,71.1,96,82,60,30.24,30.11,8,1,8,0.00
2013-7-7,90.2,79.8,69.6,76.5,72.5,68.4,97,80,57,30.18,30.05,7,1,10,0.00
2013-7-8,87.2,78.0,72.6,77.6,73.5,71.1,97,87,67,30.16,30.07,6,1,10,0.71
2013-7-9,88.4,76.9,71.2,78.9,74.0,70.3,98,91,67,30.15,30.06,6,0,10,0.07
2013-7-10,88.6,80.1,74.5,77.2,74.6,70.9,97,84,63,30.10,29.94,7,1,13,0.00
2013-7-11,83.4,76.3,73.3,75.2,73.2,71.4,98,90,76,29.98,29.87,4,1,9,0.51
2013-7-12,76.9,73.8,71.3,73.2,71.7,70.1,98,93,84,30.02,29.86,3,0,6,0.13
2013-7-13,80.3,74.7,70.7,77.8,72.9,69.5,97,94,85,30.18,30.00,2,0,8,0.94
2013-7-14,88.5,78.6,70.7,77.0,73.5,70.1,99,86,63,30.29,30.18,4,0,6,0.00
2013-7-15,92.3,78.3,68.0,77.0,72.0,67.4,99,83,50,30.31,30.23,1,0,3,0.00
2013-7-16,95.0,80.1,67.8,81.6,74.2,67.2,99,84,51,30.26,30.16,4,0,6,0.00
2013-7-17,95.6,83.6,73.8,80.0,75.6,71.5,98,79,49,30.21,30.09,3,0,3,0.00
2013-7-18,96.4,82.7,73.6,81.8,76.2,72.7,98,83,51,30.13,30.02,3,0,6,0.00
2013-7-19,91.8,82.8,74.4,78.2,75.0,71.1,98,79,58,30.08,29.96,5,1,9,0.00
2013-7-20,89.5,81.3,76.6,76.9,74.2,72.7,91,80,62,30.02,29.90,8,2,10,0.00
2013-7-21,89.6,78.8,74.4,78.7,73.8,71.3,97,85,63,29.98,29.88,5,1,7,0.65
2013-7-22,89.2,79.0,71.7,77.1,74.1,71.1,99,86,64,29.94,29.80,5,1,9,0.01
2013-7-23,92.8,81.3,73.5,77.0,73.8,71.8,96,79,55,29.83,29.70,8,1,11,0.00
2013-7-24,96.6,79.1,69.6,74.9,71.5,66.0,99,80,47,29.84,29.71,7,0,28,0.00
2013-7-25,83.0,74.4,67.3,72.4,69.4,66.0,96,85,66,30.02,29.80,4,0,5,0.00
2013-7-26,87.7,73.0,60.8,71.6,65.0,60.2,98,79,47,30.10,30.01,2,0,5,0.00
2013-7-27,87.7,73.8,65.8,75.4,69.2,64.9,99,87,53,30.05,29.93,5,0,8,0.05
2013-7-28,87.8,77.5,69.5,75.6,72.3,68.9,99,85,58,29.99,29.91,6,1,10,0.00
2013-7-29,91.1,78.4,70.7,74.1,70.3,66.1,97,78,48,30.14,29.98,3,0,9,0.01
2013-7-30,90.0,74.5,61.9,74.6,67.5,61.0,98,81,46,30.21,30.12,3,0,4,0.00
2013-7-31,83.4,75.4,71.2,75.2,72.0,69.1,97,90,68,30.14,29.99,5,0,10,0.14
2013-8-1,84.4,75.3,70.7,77.3,72.4,69.5,98,91,73,30.01,29.85,5,0,13,0.53
2013-8-2,92.7,77.4,67.3,75.8,71.1,66.7,99,83,51,30.00,29.89,4,0,6,0.03
2013-8-3,90.2,78.2,71.2,77.7,73.8,70.3,98,88,59,30.00,29.89,6,1,9,0.05
2013-8-4,86.1,74.6,64.7,73.2,68.1,63.3,99,83,49,30.02,29.87,2,0,4,0.00
2013-8-5,84.5,72.6,61.3,70.9,64.0,59.0,98,77,47,30.09,30.00,4,0,6,0.00
2013-8-6,84.3,75.0,67.4,71.4,67.6,64.0,96,79,58,30.05,29.99,5,1,11,0.06
2013-8-7,88.9,76.7,66.3,74.5,69.2,65.4,98,80,49,30.10,30.01,6,1,9,0.00
2013-8-8,90.7,79.0,69.2,76.6,71.7,68.3,98,80,51,30.06,29.98,3,0,9,0.00
2013-8-9,92.7,82.8,74.6,76.7,74.7,72.6,96,78,56,30.03,29.96,9,2,13,0.00
2013-8-10,95.7,81.6,74.4,80.9,75.6,71.2,98,83,54,30.08,29.98,8,1,16,0.39
2013-8-11,94.3,80.2,71.9,81.2,74.9,71.3,99,86,54,30.10,29.99,4,0,6,0.00
2013-8-12,95.6,81.4,71.9,77.0,73.8,69.3,99,81,44,30.03,29.91,5,0,6,0.00
2013-8-13,90.4,78.2,71.9,79.9,74.6,71.2,98,89,64,29.97,29.75,9,1,20,1.50
2013-8-14,76.8,71.5,60.9,73.8,66.8,60.0,98,86,66,30.08,29.80,2,0,4,0.00
2013-8-15,78.5,65.4,58.8,64.9,59.9,57.6,98,84,49,30.16,30.07,2,0,4,0.00
2013-8-16,72.1,65.7,58.6,64.5,61.6,58.0,98,87,69,30.17,30.09,1,0,2,0.00
2013-8-17,72.8,68.2,62.8,71.9,66.4,61.5,98,94,89,30.17,30.10,1,0,3,0.09
2013-8-18,84.6,74.5,68.5,73.8,70.0,66.5,99,87,66,30.19,30.11,7,1,9,0.00
2013-8-19,75.5,70.1,66.6,72.2,68.6,65.5,98,95,86,30.19,30.08,3,0,6,1.75
2013-8-20,85.1,74.6,67.2,76.1,71.4,66.9,99,90,69,30.18,30.10,1,0,4,0.00
2013-8-21,87.4,75.8,70.3,79.5,73.2,68.7,99,92,71,30.22,30.09,6,0,11,0.94
2013-8-22,93.6,79.1,68.9,78.3,72.4,68.4,99,82,51,30.14,29.97,4,0,7,0.00
2013-8-23,89.2,78.1,68.8,76.4,71.7,68.2,99,82,59,30.05,29.90,7,0,8,0.00
2013-8-24,84.2,72.8,64.4,67.6,63.7,60.3,96,76,47,30.29,30.05,3,0,5,0.00
2013-8-25,81.8,69.3,59.0,66.2,61.2,56.6,99,79,43,30.39,30.28,4,0,6,0.00
2013-8-26,86.9,68.7,53.1,68.4,60.0,52.4,99,78,39,30.32,30.10,3,0,5,0.00
2013-8-27,90.7,73.0,59.0,76.4,67.0,58.2,99,84,50,30.12,29.95,4,0,6,0.00
2013-8-28,83.6,75.9,67.7,76.9,73.0,67.1,99,91,75,29.97,29.85,3,0,5,0.00
2013-8-29,88.9,80.0,70.9,77.2,73.7,69.4,95,82,63,30.00,29.82,4,0,6,0.00
2013-8-30,90.7,75.6,65.9,73.6,68.3,62.1,98,81,40,30.06,29.93,4,0,4,0.00
2013-8-31,89.5,76.9,65.7,74.6,70.3,65.1,99,82,55,29.97,29.85,7,1,9,0.00
2013-9-1,91.1,77.5,71.8,79.4,73.5,70.6,98,88,61,29.89,29.76,11,1,18,1.39
2013-9-2,90.7,78.3,70.0,79.3,73.7,69.4,99,87,59,29.87,29.78,6,1,7,0.04
2013-9-3,89.9,77.7,70.6,77.8,73.4,70.0,99,88,62,29.92,29.79,6,0,7,0.00
2013-9-4,88.3,75.8,69.0,75.9,70.2,66.4,99,84,59,30.08,29.92,2,0,4,0.00
2013-9-5,91.5,75.7,64.4,72.1,66.6,60.5,99,78,37,30.08,30.01,5,0,7,0.00
2013-9-6,85.6,71.6,63.1,69.1,63.4,58.6,98,78,44,30.16,30.06,2,0,4,0.00
2013-9-7,87.3,70.3,57.5,70.1,62.7,56.9,99,80,46,30.13,29.97,4,0,5,0.00
2013-9-8,90.0,73.9,61.3,74.7,66.1,60.7,99,80,43,29.98,29.89,3,0,5,0.00
2013-9-9,89.4,74.9,63.5,74.2,68.6,62.9,99,83,53,30.14,29.98,2,0,5,0.00
2013-9-10,93.1,77.3,65.2,75.9,69.8,64.6,99,81,48,30.22,30.13,3,0,6,0.00
2013-9-11,91.1,76.9,65.8,73.3,69.1,64.9,99,80,47,30.20,30.06,6,0,8,0.00
2013-9-12,91.6,78.4,67.5,74.8,70.7,66.4,98,79,54,30.07,29.79,6,1,8,0.00
2013-9-13,87.8,74.7,62.7,70.1,65.7,60.4,98,77,44,29.87,29.73,4,0,9,0.00
2013-9-14,79.5,66.3,56.6,61.1,54.4,48.9,96,69,40,30.14,29.87,3,0,5,0.00
2013-9-15,83.2,65.7,51.0,66.3,57.6,50.1,98,79,44,30.24,30.11,4,0,5,0.00
2013-9-16,88.6,72.5,61.3,73.2,64.3,60.2,98,78,42,30.18,30.02,6,0,8,0.00
2013-9-17,78.6,66.9,58.3,61.6,56.2,51.7,91,71,41,30.31,30.18,5,0,6,0.00
2013-9-18,74.6,59.7,48.8,59.7,52.7,47.7,98,80,47,30.30,30.17,3,0,4,0.00
2013-9-19,78.7,64.3,51.9,65.8,58.1,50.9,98,83,50,30.19,30.08,4,0,5,0.00
2013-9-20,71.2,66.5,62.0,66.9,64.2,60.8,98,92,83,30.10,29.96,4,0,7,0.54
2013-9-21,77.4,70.2,66.0,71.5,67.9,64.7,98,93,81,29.97,29.72,5,1,9,0.53
2013-9-22,79.7,68.8,58.5,69.2,62.6,57.4,98,83,51,29.89,29.70,4,0,6,1.58
2013-9-23,75.9,62.8,53.7,60.1,55.1,51.7,98,78,49,30.07,29.89,4,0,9,0.00
2013-9-24,78.4,61.9,50.2,63.7,56.3,49.4,98,84,51,30.10,29.95,2,0,5,0.00
2013-9-25,75.9,62.5,50.5,65.0,58.2,50.0,99,87,58,29.96,29.86,2,0,4,0.00
2013-9-26,78.9,66.1,56.6,62.6,58.9,52.4,98,80,43,30.03,29.86,3,0,4,0.00
2013-9-27,75.2,61.8,52.2,61.7,56.6,51.6,99,85,55,30.18,30.03,4,0,5,0.00
2013-9-28,75.6,61.4,49.1,60.0,55.1,48.6,99,82,55,30.25,30.15,3,0,5,0.00
2013-9-29,77.0,62.2,49.3,61.5,55.5,48.5,99,82,49,30.17,30.02,2,0,4,0.00
2013-9-30,78.1,61.5,50.9,63.2,55.9,50.4,99,85,46,30.09,29.99,2,0,6,0.00
2013-10-1,85.4,63.7,49.5,69.1,57.6,49.0,99,84,44,30.12,30.01,4,0,6,0.00
2013-10-2,87.3,69.4,55.1,68.0,61.2,54.5,99,79,42,30.12,30.03,4,0,5,0.00
2013-10-3,85.8,69.6,56.6,69.9,62.2,56.0,99,81,47,30.12,30.04,4,0,8,0.00
2013-10-4,88.6,72.1,60.6,71.8,64.8,60.0,99,81,45,30.12,30.03,5,0,7,0.00
2013-10-5,91.7,73.7,59.7,72.4,65.4,59.1,99,80,41,30.11,30.02,3,0,6,0.00
2013-10-6,84.8,71.8,61.8,73.7,68.1,61.2,99,89,63,30.07,29.94,5,0,7,0.01
2013-10-7,76.7,71.3,65.1,73.3,69.7,63.0,98,95,88,29.98,29.85,5,1,12,0.37
2013-10-8,65.1,60.4,57.7,63.0,52.5,48.0,93,75,65,30.19,29.97,3,0,7,0.00
2013-10-9,62.6,58.9,55.2,57.0,54.3,51.5,97,85,77,30.17,30.06,4,0,6,0.03
2013-10-10,59.7,56.7,54.0,58.8,55.7,53.2,98,97,94,30.06,29.92,2,0,4,0.29
2013-10-11,65.8,61.9,59.1,62.5,60.2,58.3,98,94,88,29.96,29.89,1,0,3,0.01
2013-10-12,69.3,65.1,61.6,66.4,63.2,60.4,96,94,88,30.07,29.94,2,0,4,0.00
2013-10-13,67.7,64.8,63.0,65.6,63.3,61.5,98,95,91,30.19,30.06,2,0,4,0.09
2013-10-14,66.6,62.9,57.4,63.4,61.1,56.6,98,94,86,30.23,30.17,2,0,4,0.03
2013-10-15,71.2,62.6,52.4,63.7,59.1,51.8,99,89,70,30.19,30.05,3,0,4,0.00
2013-10-16,70.7,65.5,60.7,65.1,62.8,60.1,98,91,78,30.05,29.95,1,0,3,0.00
2013-10-17,77.1,67.5,58.7,66.9,63.0,58.1,99,86,66,29.96,29.83,8,1,11,0.00
2013-10-18,69.6,63.6,56.0,65.8,55.9,49.0,97,77,53,30.03,29.87,3,0,4,0.00
2013-10-19,69.9,64.0,60.2,66.1,61.9,58.2,97,93,87,29.97,29.81,5,0,6,0.01
2013-10-20,67.5,55.7,42.7,60.2,47.7,41.6,98,78,43,30.12,29.89,4,0,6,0.00
2013-10-21,70.4,52.0,36.7,54.2,45.5,36.2,99,82,45,30.17,30.01,3,0,8,0.00
2013-10-22,64.6,55.8,48.6,59.5,53.8,47.8,98,93,81,30.01,29.81,2,0,5,0.00
2013-10-23,68.5,59.4,48.1,59.1,49.7,36.3,99,74,37,29.99,29.68,10,1,17,0.00
2013-10-24,60.9,47.5,34.2,42.5,36.7,32.9,97,70,38,30.18,29.99,7,0,11,0.00
2013-10-25,58.4,45.7,32.5,41.5,35.2,29.7,95,71,34,30.37,30.18,7,0,9,0.00
2013-10-26,60.1,42.3,27.7,40.7,32.7,26.7,98,75,34,30.36,30.08,6,1,11,0.00
2013-10-27,71.7,52.4,38.7,50.3,42.8,37.6,97,75,38,30.14,30.04,6,0,7,0.00
2013-10-28,70.8,54.0,40.6,57.5,48.9,39.8,98,85,52,30.26,30.13,6,0,6,0.00
2013-10-29,75.5,58.1,46.0,59.1,53.0,45.2,99,85,54,30.33,30.24,3,0,5,0.00
2013-10-30,74.7,60.8,51.2,61.4,56.4,50.1,98,87,57,30.30,30.16,5,0,7,0.00
2013-10-31,75.5,64.5,53.3,64.2,57.8,52.5,99,81,55,30.19,29.93,7,1,12,0.00
2013-11-1,74.2,69.4,64.0,68.0,65.9,61.3,97,89,75,29.93,29.67,10,2,14,1.27
2013-11-2,73.2,62.6,53.5,61.2,53.3,45.7,98,75,40,29.92,29.68,6,0,9,0.00
2013-11-3,65.1,50.0,38.4,48.1,41.0,37.6,98,75,39,30.37,29.92,4,0,9,0.00
2013-11-4,57.1,44.3,34.5,39.0,35.3,32.6,97,74,40,30.56,30.37,4,0,5,0.00
2013-11-5,57.8,49.0,38.8,51.0,43.7,34.8,94,82,70,30.54,30.43,2,0,4,0.00
2013-11-6,73.0,56.8,44.0,58.9,51.7,43.2,98,85,56,30.43,30.12,3,0,4,0.00
2013-11-7,69.5,60.6,46.9,63.8,54.3,33.6,99,81,51,30.12,29.91,7,1,10,0.08
2013-11-8,59.3,45.0,31.4,36.3,32.1,27.1,95,65,30,30.33,30.09,7,0,11,0.00
2013-11-9,59.4,42.7,29.0,41.4,33.4,28.0,98,75,34,30.39,30.19,7,1,10,0.00
2013-11-10,73.4,51.3,34.0,43.7,37.0,28.7,98,66,26,30.24,30.05,8,1,19,0.00
2013-11-11,61.3,44.3,30.0,38.6,32.5,28.3,95,68,31,30.36,30.14,3,0,4,0.00
2013-11-12,62.9,41.3,31.6,42.3,32.6,19.5,98,74,37,30.42,30.06,6,0,8,0.00
2013-11-13,47.2,34.8,24.4,24.7,20.1,16.7,91,58,30,30.53,30.42,5,0,7,0.00
2013-11-14,58.4,37.2,21.2,30.5,24.0,19.6,96,67,24,30.48,30.34,8,1,11,0.00
2013-11-15,64.0,45.1,26.0,49.7,37.1,24.5,95,77,42,30.37,30.22,3,0,5,0.00
2013-11-16,68.9,55.2,48.4,60.3,52.9,47.0,98,92,74,30.27,30.21,4,0,6,0.01
2013-11-17,72.0,61.3,51.1,66.3,58.0,50.3,99,90,68,30.22,29.90,5,0,8,0.08
2013-11-18,77.7,67.1,51.1,67.8,54.6,32.0,97,67,38,29.95,29.78,6,1,9,0.00
2013-11-19,58.2,49.0,37.4,35.1,30.5,27.4,86,51,33,30.32,29.95,4,0,5,0.00
2013-11-20,53.8,44.8,37.9,40.0,33.7,28.8,85,66,48,30.45,30.32,6,0,7,0.00
2013-11-21,63.0,50.2,41.9,50.5,44.2,38.0,95,80,61,30.51,30.38,3,0,4,0.00
2013-11-22,71.4,59.7,46.5,61.2,54.9,45.2,98,85,68,30.40,30.08,5,1,9,0.02
2013-11-23,62.6,56.1,42.4,61.2,44.9,22.1,98,69,36,30.17,30.02,2,0,6,0.03
2013-11-24,42.2,33.6,22.5,25.1,12.5,4.6,78,44,24,30.55,30.17,6,0,11,0.00
2013-11-25,43.7,30.2,16.6,24.1,15.0,8.1,90,58,24,30.61,30.39,3,0,6,0.00
2013-11-26,67.2,46.5,33.7,65.9,39.3,20.6,98,77,53,30.41,29.55,6,1,11,0.54
2013-11-27,67.4,41.6,30.7,66.1,38.5,20.5,98,89,65,30.16,29.49,9,0,15,0.83
2013-11-28,45.1,32.3,22.4,29.3,22.2,17.4,94,69,39,30.50,30.16,4,0,7,0.00
2013-11-29,52.2,34.5,22.0,32.5,25.7,20.8,96,75,37,30.66,30.49,3,0,5,0.00
2013-11-30,50.9,36.3,26.2,35.7,29.8,23.9,96,79,54,30.66,30.38,3,0,6,0.00
2013-12-1,60.5,40.2,26.2,40.3,32.3,25.2,97,78,33,30.38,30.03,3,0,6,0.00
2013-12-2,59.7,44.2,34.1,46.7,38.8,33.1,97,84,40,30.03,29.83,2,0,4,0.00
2013-12-3,58.6,45.4,30.0,47.9,40.2,29.2,98,84,60,30.01,29.88,5,0,7,0.00
2013-12-4,66.1,56.2,50.1,58.6,52.9,47.7,97,89,75,30.10,29.99,3,0,4,0.00
2013-12-5,67.5,61.4,50.2,64.4,59.7,49.4,98,94,86,30.14,30.04,4,1,8,0.01
2013-12-6,79.0,71.3,65.3,65.7,64.2,62.8,93,79,61,30.08,29.96,12,2,22,0.00
2013-12-7,69.7,49.7,42.4,65.7,45.1,32.3,95,84,67,30.46,29.98,6,1,8,0.15
2013-12-8,42.4,35.8,33.3,33.9,32.4,29.8,97,88,67,30.47,30.30,4,0,8,0.07
2013-12-9,46.4,40.7,34.5,45.9,40.1,33.7,98,98,97,30.29,30.07,2,0,3,0.22
2013-12-10,47.0,43.3,28.7,46.5,41.9,27.7,98,95,81,30.33,29.92,3,0,5,0.63
2013-12-11,49.6,34.6,22.9,33.6,26.6,21.9,98,78,35,30.47,30.30,6,0,7,0.00
2013-12-12,46.7,33.3,23.5,28.0,22.9,12.6,97,71,26,30.43,30.28,5,0,8,0.00
2013-12-13,51.3,34.3,20.2,31.2,23.7,18.4,96,71,28,30.41,30.28,5,1,9,0.00
2013-12-14,48.1,40.5,34.5,41.6,36.4,29.7,97,86,51,30.32,29.78,5,0,7,0.91
2013-12-15,54.9,43.5,30.2,44.8,37.7,28.7,98,82,49,30.08,29.69,5,1,10,0.03
2013-12-16,55.0,38.5,26.4,38.8,31.9,25.4,98,81,43,30.19,30.07,5,0,8,0.00
2013-12-17,61.9,45.3,29.6,41.1,35.5,28.9,98,73,41,30.13,29.88,14,1,18,0.00
2013-12-18,49.9,39.1,26.8,38.8,27.0,19.9,92,66,32,30.30,30.03,8,0,13,3.15
2013-12-19,62.4,42.5,24.6,34.2,27.1,22.9,95,62,24,30.34,30.22,9,1,13,0.00
2013-12-20,67.8,52.7,38.0,55.2,44.6,31.8,94,75,51,30.26,30.11,7,1,14,0.00
2013-12-21,73.5,60.3,45.4,66.2,56.0,44.3,98,87,65,30.16,30.05,9,1,14,0.00
2013-12-22,79.3,70.8,63.9,68.0,65.5,62.5,97,84,62,30.11,30.02,11,2,20,0.16
2013-12-23,68.3,61.2,46.9,66.9,59.7,45.0,98,95,87,30.14,29.99,7,1,12,1.52
2013-12-24,47.9,41.6,29.6,44.6,31.6,15.6,95,69,48,30.46,30.12,10,0,12,0.00
2013-12-25,39.5,29.4,22.2,24.0,17.3,12.6,91,63,34,30.57,30.42,3,0,5,0.00
2013-12-26,51.1,34.6,22.8,36.7,29.5,20.6,95,84,43,30.42,30.25,5,0,5,0.05
2013-12-27,54.0,34.3,23.1,34.8,25.8,21.9,96,77,30,30.47,30.37,3,0,4,0.00
2013-12-28,60.3,38.4,22.7,40.2,30.2,21.5,96,77,28,30.42,30.17,3,0,6,0.00
2013-12-29,65.6,50.4,41.3,64.5,48.7,39.4,99,94,76,30.17,29.67,10,1,17,2.03
2013-12-30,54.6,43.8,33.6,46.3,40.1,33.1,99,88,63,30.14,29.93,2,0,5,0.00
2013-12-31,51.6,41.5,29.6,39.3,32.3,23.5,94,73,34,30.36,30.12,8,1,15,0.00
2014-1-1,52.0,38.1,28.9,35.0,29.3,23.5,96,75,33,30.44,30.16,4,0,7,0.00
2014-1-2,48.2,42.8,36.7,46.0,39.9,34.5,97,90,73,30.16,29.57,3,0,8,0.36